Accueil
METAR-TAF:

METAR-TAF

Aéroports :

Meiringen, Suisse

latitude: 46-44-25N, longitude: 8-06-36E, altitude: 577 m

Observation

Le bulletin a été fait il y a 22 minutes, à 21:50 UTC
Vent calme
Température 17°C
Humidité 94%
Pression 1021 hPa
Visibilité 10 km ou plus
Quelques nuages à une hauteur de 11000 ft
Ciel couvert à une hauteur de 14000 ft

METAR: LSMM 212150Z AUTO 00000KT 9999NDV FEW110 OVC140 17/16 Q1021 RMK

Heure: 00:12 (22:12 UTC)


TAF: absent

Observations et prévisions météorologiques de plus de 4000 aéroports (messages METAR et TAF).

Les stations disponibles sont représentées par des disques jaunes et rouges sur la carte.

Passer la souris dessus pour voir le nom de la station.

Cliquer dessus pour voir les observations et prévisions météorologiques.

Pour changer de carte: cliquez sur les boutons verts avec une croix noire pour zoomer, sur le bouton vert avec un tiret pour effectuer un zoom arrière, ou sur les flèches vertes pour les cartes adjacentes.


METAR-TAF: